ELNO2: N. Canadian River, El Reno, OK

Data processed at Sat Dec 09 2017 23:24


All information presented herein is the property of the government of the United States of America and may be revised or deleted at any time without prior notice.
Dissemination of this information without the expressed written consent of the Public Affairs Office, Tulsa District U.S. Army Corps of Engineers is strictly prohibited.
These data are gathered electronically and, as presented, have not undergone any form of quality control. These data are not guaranteed to be valid or correct.
Go to home page.
Go to station list.

Upstream stations:

Downstream station:
Previous Day
Next Day
Current Day
    
SHEF ID:       ELNO2     North Canadian River near El Ren
STATION TYPE:  

               PRECIP     STAGE  STAGE(2)  RIV-FLOW  WTR-TEMP   CONDUCT  BAT-LOAD
                   in        ft        ft       cfs         F   umho/cm      volt
              Ccp-Rev   Ccp-Rev   Ccp-Rev   Ccp-Rev   Ccp-Rev   Ccp-Rev   Ccp-Rev
(US/Central)
12/07 00:00      0.00      3.62      ----        48     42.62       583     12.57
12/07 01:00      0.00      3.62      ----        48     42.17       581     12.57
12/07 02:00      0.00      3.62      ----        48     41.54       579     12.57
12/07 03:00      0.00      3.62      ----        48     40.78       578     12.57
12/07 04:00      0.00      3.62      ----        48     40.14       577     12.57
12/07 05:00      0.00      3.62      ----        48     39.38       581     12.49
12/07 06:00      0.00      3.62      ----        48     38.57       597     12.49
12/07 07:00      0.00      3.62      ----        48     37.85       610     12.41
12/07 08:00      0.00      3.62      ----        48     37.45       614     12.41
12/07 09:00      0.00      3.62      ----        48     37.15       614     12.57
12/07 10:00      0.00      3.61      ----        48     37.18       615     13.53
12/07 11:00      0.00      3.62      ----        48     37.72       615     13.60
12/07 12:00      0.00      3.61      ----        48     39.15       619     13.60
12/07 13:00      0.00      3.62      ----        48     40.50       622     13.53
12/07 14:00      0.00      3.62      ----        48     41.29       623     13.53
12/07 15:00      0.00      3.62      ----        48     41.58       619     13.53
12/07 16:00      0.00      3.62      ----        48     41.14       614     13.53
12/07 17:00      0.00      3.63      ----        49     40.30       606     13.37
12/07 18:00      0.00      3.62      ----        48     39.56       600     12.97
12/07 19:00      0.00      3.62      ----        48     39.24       596     12.73
12/07 20:00      0.00      3.63      ----        49     38.95       593     12.65
12/07 21:00      0.00      3.62      ----        48     38.44       589     12.65
12/07 22:00      0.00      3.62      ----        48     37.90       586     12.57
12/07 23:00      0.00      3.62      ----        48     37.40       584     12.57